CZ-6A DEB, 54918

Orbit data source: Space-Track

CZ-6A DEB, 54918 is space debris in SSO originally from a launch on Fri, 11 Nov 2022 UTC launched from the Taiyaun Space Center, China (TSC). Debris objects in space refer to the collection of defunct objects orbiting the Earth. Examples of debris include non-operational satellites, rocket bodies, and fragments generated from explosions, collisions, or faulty payload assembly.

Loading next visibility...
Identifier
54918, 2022-151RF
Orbit
SSO
Country
Flag of CNCN / PRC
Related business
Manufacturer
SAST
Mission
Spacecraft
Bus & Motor
Unknown
Mass
Unknown
Launch date (UTC)
2022-11-11 (4 years ago)
Launch vehicle
Unknown
Launch site
Taiyaun Space Center, China (TSC)
Object type
Payload
Rocket body
Debris
Shape & HBR
Unknown shape, 0.1 m
Radar Cross Section
Medium (>0.1 m² and <1 m²)

Expand to show TLE details & history
Last TLE update: 2 days ago

TLE from 2 days ago
0 CZ-6A DEB
1 54918U 22151RF  26170.97451736  .00001552  00000-0  72960-3 0  9996
2 54918  98.8138 186.5404 0027223 294.3271  65.5064 14.21306228182712
Epoch: 2026-06-19T23:23Z
TLE epoch observation values (Epoch: 2026-06-19T23:23:18.299Z)
Latitude
-0.00003°
Longitude
-72.48164°
Altitude
815.769 km
Speed
7.45 km/s
True Right ascension
12h 26m 09s
True Declination
0° 00' 00"
Sunlit
Object was in daylight at epoch
Visualization orbit readout
Latitude
Unknown
Longitude
Unknown
Altitude
Unknown
Speed
Unknown
Apparent Right ascension
Unknown
Apparent Declination
Unknown
Sunlit
N/A
Visualization observer readout
Local Sidereal Time
21:31:11
Azimuth
Unknown
Elevation
Unknown
Doppler factor
Unknown
Orbital elements
Apogee altitude
837.691 km
Perigee altitude
798.51 km
Semi-major axis
7,196.237 km
Eccentricity
0.00272
Inclination
98.8138°
RAAN
186.5404°
Arg. of periapsis
294.3271°
True anomaly
65.79068°
Mean anomaly
65.5064°
Eccentric anomaly
65.6485°
Mean motion
3.55537 °/min
Orbital period
101.26 mins
BSTAR
0.0007296
Loading maneuver chart data...
Computing Atmospheric mass density...
Loading historical data...
Loading historical data...
Loading historical data...
Loading historical data...
Loading historical data...
Loading historical data...
Loading historical data...

Documentation

Showing up to 5 results
|